Starlink 1202

operational
NORAD ID: 45183 Int'l Des: 2020-012 Owner: SPXS Country: US Constellation: starlink
LEOCIRCULARSTARLINK_TYPE

Über Starlink 1202

Beschreibung wird geladen...

Live-Position

3D-Globus wird geladen...

Nächste Überflüge

Höhenverlauf

Altitude vs Time

uPlot chart will show altitude changes over time

Zweizeiliger Elementsatz

1 45183U 20012F 25351.56931688 .00004713 00000-0 33490-3 0 9995
2 45183 53.0557 55.2724 0001081 79.7741 280.3370 15.06420059322460
Epoch: 17. Dez. 2025 • Age: 19 hours

Aktueller Status

Höhe 548.8 km
Geschwindigkeit 7.59 km/s
Subsatellitenpunkt -5.18°S, 170.54°W
Startdatum 17. Feb. 2020
Alter 5.8 years
Typ internet

Technische Details

Klassifizierung Payload
Masse 260.00 kg
Trockenmasse 248.00 kg
Gesamtmasse 260.00 kg
Länge 0.20 m
Durchmesser 2.80 m
Spannweite 9.00 m
Form Box + pan
Hersteller SPXS
Bus-Typ Starlink
Phasenstatus In Orbit
Besitzer/Staat SPXS/US

Große Konstellationen

Loading constellations...